Location: Ciula Mare
(45.6000°N, 22.8167°E)
Time: 11:35:48
(UTC+00:00)

CSL-04 Rocket - Pass Details

Date: 03 February 2023
Orbit: 806 x 859 km, 98.8° (Epoch: 20 March)

Event Time Altitude Azimuth Distance (km) Brightness Sun altitude
Exits shadow 18:47:13 47° 295° (WNW) 1,088 4.5 -33.3°
Drops below altitude 10° 18:51:32 10° 337° (NNW) 2,442 6.4 -34.1°
Sets 18:53:59 0° 342° (NNW) 3,388 7.2 -34.5°
